Regional Weather Roundup
Issued by NWS

Home | Current Version | Previous Version | Text Only | Print | Product List | Glossary Off
Versions: 1 2 3 4 5 6 7 8 9 10 11 12 13 14 15 16 17 18 19 20 21 22 23 24 25 26 27 28 29 30 31 32 33 34 35 36 37 38 39 40 41 42 43 44 45 46 47 48 49 50

000
ASUS43 KOAX 152302
RWRNE

WEATHER ROUNDUP FOR NEBRASKA
NATIONAL WEATHER SERVICE OMAHA NE
600 PM CDT MON SEP 15 2014

NOTES: SATELLITE DATA IS BEING USED TO AUGMENT CLOUD COVER ABOVE
       12000 FEET.
       "FAIR" INDICATES FEW OR NO CLOUDS BELOW 12,000 FEET WITH NO
       SIGNIFICANT WEATHER AND/OR OBSTRUCTIONS TO VISIBILITY.

  * THESE STATIONS DO NOT REPORT WEATHER SUCH AS RAIN...SNOW OR FOG.

NEZ001>004-019>022-054>056-160000-
NEBRASKA PANHANDLE

CITY           SKY/WX    TMP DP  RH WIND       PRES   REMARKS
SCOTTSBLUFF    SUNNY     72  45  37 SE17      30.19F
ALLIANCE       SUNNY     66  43  43 S16       30.22F
CHADRON        SUNNY     71  43  36 S14       30.16F
KIMBALL        SUNNY     68  43  40 S17       30.23F
SIDNEY         SUNNY     67  43  41 S16       30.25F
$$

NEZ057>060-069>072-079>082-160000-
SOUTHWEST NEBRASKA

CITY           SKY/WX    TMP DP  RH WIND       PRES   REMARKS
NORTH PLATTE   SUNNY     66  42  41 VRB6      30.25F
IMPERIAL       SUNNY     67  41  38 SE6       30.25F
LEXINGTON      SUNNY     64  45  49 E7        30.26S
MCCOOK         SUNNY     68  42  38 E6        30.25F
OGALLALA       SUNNY     69  44  40 S8        30.24F
$$

NEZ005>010-023>029-035>040-094-160000-
NORTH CENTRAL NEBRASKA

CITY           SKY/WX    TMP DP  RH WIND       PRES   REMARKS
VALENTINE      SUNNY     66  35  31 SE9       30.23F
AINSWORTH      SUNNY     62  36  38 CALM      30.25S
BROKEN BOW     SUNNY     66  39  37 CALM      30.25S
O`NEILL        SUNNY     62  41  45 CALM      30.25F
ORD            SUNNY     65  38  36 CALM      30.24S
THEDFORD       SUNNY     66  39  36 SE5       30.25F
$$

NEZ041-046>049-061>064-073>077-083>087-160000-
SOUTH CENTRAL NEBRASKA

CITY           SKY/WX    TMP DP  RH WIND       PRES   REMARKS
GRAND ISLAND   SUNNY     64  42  44 E8        30.26R
AURORA         SUNNY     63  41  43 NE7       30.26R
HASTINGS       SUNNY     64  42  44 NE7       30.25S
HEBRON         SUNNY     67  42  41 NE8       30.23S
HOLDREGE       SUNNY     64  41  42 CALM      30.25F
KEARNEY *      SUNNY     64  43  45 NE6       30.27S
YORK           SUNNY     63  45  51 NE6       30.25S
$$

NEZ011>018-030>034-042>045-160000-
NORTHEAST NEBRASKA

CITY           SKY/WX    TMP DP  RH WIND       PRES   REMARKS
NORFOLK        SUNNY     63  41  44 N7        30.25S
ALBION         SUNNY     61  40  45 E5        30.25S
BLAIR          CLOUDY    63  46  53 N7        30.23S
COLUMBUS *     SUNNY     63  41  45 N7        30.26S
FREMONT        PTSUNNY   63  43  49 NE6       30.25S
TEKAMAH        PTSUNNY   63  44  50 NE13      30.24R
WAYNE          SUNNY     62  42  47 N6        30.25S
$$

NEZ050>053-065>068-078-088>093-160000-
SOUTHEAST NEBRASKA

CITY           SKY/WX    TMP DP  RH WIND       PRES   REMARKS
LINCOLN        SUNNY     64  44  48 N10       30.25R
OMAHA EPPLEY   PTSUNNY   62  45  53 N6        30.24S
BEATRICE       SUNNY     65  46  49 N14       30.23R
FALLS CITY     MOSUNNY   67  50  54 N12G21    30.20R
NEBRASKA CITY  SUNNY     62  40  43 N12       30.23R
PLATTSMOUTH    MOSUNNY   61  43  51 N6        30.24R
$$

NEZ044-045-051>053-067-160000-
OMAHA AREA

CITY           SKY/WX    TMP DP  RH WIND       PRES   REMARKS
OMAHA EPPLEY   PTSUNNY   62  45  53 N6        30.24S
BLAIR          CLOUDY    63  46  53 N7        30.23S
FREMONT        PTSUNNY   63  43  49 NE6       30.25S
MILLARD        PTSUNNY   62  45  53 NE5       30.24R
OFFUTT AFB     CLOUDY    61  48  62 N7        30.24R
PLATTSMOUTH    MOSUNNY   61  43  51 N6        30.24R
WAHOO          FAIR      63  40  43 NE6       30.24S
$$



USA.gov is the U.S. government's official web portal to all federal, state and local government web resources and services.